Regional Weather Roundup
Issued by NWS

Home | Current Version | Previous Version | Graphics & Text | Print | Product List | Glossary On
Versions: 1 2 3 4 5 6 7 8 9 10 11 12 13 14 15 16 17 18 19 20 21 22 23 24 25 26 27 28 29 30 31 32 33 34 35 36 37 38 39 40 41 42 43 44 45 46 47 48 49 50
000
ASUS43 KBIS 020101
RWRND

NORTH DAKOTA REGIONAL WEATHER ROUNDUP
NATIONAL WEATHER SERVICE BISMARCK ND
800 PM CDT WED APR 01 2015

NOTE: "FAIR" INDICATES FEW OR NO CLOUDS BELOW 12,000 FEET WITH NO
SIGNIFICANT WEATHER AND/OR OBSTRUCTIONS TO VISIBILITY.


NDZ001>003-009>011-017-020200-
NORTHWEST NORTH DAKOTA

CITY           SKY/WX    TMP DP  RH WIND       PRES   REMARKS
WILLISTON      MOCLDY    50  21  32 W21G36    29.66S
MINOT          CLEAR     50  21  32 W18       29.61R
MINOT AFB      CLEAR     50  26  39 W20       29.60R
$$

NDZ018>021-031>035-040>046-020200-
SOUTHWEST NORTH DAKOTA

CITY           SKY/WX    TMP DP  RH WIND       PRES   REMARKS
BISMARCK       PTCLDY    55  21  26 NW18G30   29.68R
DICKINSON      PTCLDY    48  21  34 W17G23    29.71R
GARRISON         N/A     50  23  34 NW17G25   29.65R
HETTINGER ARPT PTCLDY    50  10  20 W20G30    29.76R
$$

NDZ004>008-012>016-024-026-027-054-020200-
NORTHEAST NORTH DAKOTA

CITY           SKY/WX    TMP DP  RH WIND       PRES   REMARKS
GRAND FORKS    MOCLDY    53  39  59 W24G30    29.52R
GRND FRKS AFB  CLOUDY    51  38  60 W22G35    29.53R
DEVILS LAKE    PTCLDY    48  34  57 W20G25    29.58R
$$

NDZ022-023-025-028>030-036>039-047>053-020200-
SOUTHEAST NORTH DAKOTA

CITY           SKY/WX    TMP DP  RH WIND       PRES   REMARKS
FARGO          MOCLDY    60  35  39 NW21G30   29.53R
JAMESTOWN      CLOUDY    54  31  41 NW17G29   29.61R
$$



USA.gov is the U.S. government's official web portal to all federal, state and local government web resources and services.